[[{"header":{"parameterUnit":"m.s-1","parameterCategory":1,"la1":30.2991,"la2":30.254,"lo1":-89.0895,"lo2":-89.0444,"dy":0.0017,"dx":0.0017,"nx":28,"ny":28,"refTime":"2023-09-22T03:00:00:Z","depth":0,"parameterNumber":2,"parameterNumberName":"U-component_of_WINDS"},"data":[0,0,0,0,0,0,0,0,0,0,0,0,0,0,0,0,0,0,0,0,0,0,0,0,0,0,0,0,0,0,0,0,0,0,0,0,0,0,0,0,0,0,0,0,0,0,0,0,0,0,0,0,0,0,0,0,0,0,-1.1789,-1.1789,0,-1.1761,-1.1761,-1.1761,-1.1712,-1.1711,-1.171,-1.1709,-1.168,-1.168,-1.168,0,0,0,0,0,0,0,0,0,0,0,0,0,-1.1801,-1.1801,-1.1789,-1.1789,-1.1789,-1.1761,-1.1761,-1.1761,-1.1712,-1.1711,-1.171,-1.1709,-1.168,-1.168,-1.168,0,0,0,0,0,0,0,0,0,0,0,0,0,-1.1787,-1.1801,-1.1789,-1.1761,-1.1758,-1.1761,-1.1761,-1.176,-1.1712,-1.1711,-1.1709,-1.1708,-1.168,-1.168,-1.168,-1.1709,0,0,-1.1681,-1.1681,0,0,0,0,0,0,0,0,-1.1788,-1.1786,-1.1766,-1.1763,-1.176,-1.1739,-1.1754,-1.1743,-1.1713,-1.173,-1.1709,-1.1707,-1.1701,-1.1699,-1.1697,-1.1707,-1.1706,-1.1681,-1.1681,-1.1681,-1.1681,0,0,0,0,0,0,0,-1.1789,-1.1787,-1.1778,-1.1765,-1.1762,-1.175,-1.1746,-1.1752,-1.1723,-1.1728,-1.1724,-1.1722,-1.1699,-1.1697,-1.1696,-1.1706,-1.1681,-1.1681,-1.1681,-1.1681,-1.1738,-1.174,0,0,0,0,0,0,-1.1794,-1.1789,-1.1779,-1.1777,-1.1771,-1.1751,-1.1747,-1.1747,-1.1723,-1.1718,-1.1723,-1.172,-1.1697,-1.1696,-1.1695,-1.1726,-1.1681,-1.1681,-1.1681,-1.1737,-1.1739,-1.174,0,0,0,0,0,0,-1.1794,-1.1794,-1.178,-1.1782,-1.1779,-1.1752,-1.1752,-1.1747,-1.1745,-1.1719,-1.1714,-1.1726,-1.1696,-1.1694,-1.1706,-1.1725,-1.1681,-1.1681,-1.1735,-1.1738,-1.174,-1.179,0,0,0,0,0,0,-1.1795,-1.1794,-1.1804,-1.1783,-1.1779,-1.1792,-1.1754,-1.1747,-1.1745,-1.1741,-1.1721,-1.1716,-1.1695,-1.1706,-1.1706,-1.1724,-1.1681,-1.1734,-1.1736,-1.1739,-1.1787,-1.1794,-1.18,0,0,0,0,0,-1.1795,-1.182,-1.1805,-1.1804,-1.1792,-1.1793,-1.1791,-1.1766,-1.1747,-1.1757,-1.1741,-1.1717,-1.1723,-1.1707,-1.1707,-1.1726,-1.1732,-1.1736,-1.1739,-1.1784,-1.1792,-1.18,0,0,0,0,0,0,-1.1845,-1.1816,-1.18,-1.1818,-1.1808,-1.1785,-1.1797,-1.1776,-1.1772,-1.1768,-1.1737,-1.1733,-1.1748,-1.1738,-1.1721,-1.1752,-1.1724,-1.1727,-1.1758,-1.1766,-1.1773,-1.1775,-1.1681,0,0,0,0,0,-1.1857,-1.1861,-1.1836,-1.1854,-1.185,-1.1825,-1.1824,-1.1806,-1.1795,-1.179,-1.1775,-1.1765,-1.1764,-1.1765,-1.1763,-1.1785,-1.178,-1.1798,-1.1804,-1.181,-1.1813,-1.1824,-1.1832,-1.1751,-1.1751,-1.1751,0,0,-1.1884,-1.1869,-1.1873,-1.1864,-1.1854,-1.1858,-1.1822,-1.1827,-1.183,-1.1791,-1.1801,-1.1789,-1.1776,-1.1793,-1.18,-1.1785,-1.1834,-1.1814,-1.1819,-1.1819,-1.1828,-1.1836,-1.1843,-1.1753,-1.1753,-1.1753,0,0,-1.1935,-1.1924,-1.1938,-1.1929,-1.1915,-1.1898,-1.1901,-1.1881,-1.1872,-1.1881,-1.1852,-1.1855,-1.1855,-1.1847,-1.1843,-1.1891,-1.1869,-1.1891,-1.1926,-1.1937,-1.1943,-1.1949,-1.1966,-1.1973,-1.1894,-1.1895,-1.1895,0,-1.197,-1.1975,-1.1948,-1.1955,-1.1952,-1.1917,-1.1931,-1.1924,-1.191,-1.1909,-1.1893,-1.1892,-1.1881,-1.1895,-1.1907,-1.1905,-1.1908,-1.1893,-1.1945,-1.195,-1.1955,-1.1971,-1.1977,-1.1897,-1.1897,-1.1897,-1.1897,0,-1.2018,-1.2022,-1.2035,-1.2023,-1.2021,-1.2032,-1.2007,-1.2009,-1.1991,-1.1975,-1.1985,-1.1971,-1.1965,-1.1967,-1.195,-1.198,-1.1971,-1.195,-1.1921,-1.1966,-1.198,-1.1986,-1.1901,-1.19,-1.19,-1.1899,0,0,-1.2099,-1.2072,-1.2077,-1.2071,-1.2053,-1.2056,-1.2065,-1.206,-1.2062,-1.2054,-1.2061,-1.2062,-1.2043,-1.2038,-1.2019,-1.2029,-1.2068,-1.2007,-1.2006,-1.2019,-1.2101,-1.2117,-1.2124,-1.2054,-1.2055,-1.2056,-1.2102,0,-1.2146,-1.2161,-1.2137,-1.2157,-1.216,-1.2127,-1.2136,-1.2126,-1.2112,-1.2113,-1.2097,-1.2098,-1.2073,-1.207,-1.2078,-1.2062,-1.2084,-1.2058,-1.206,-1.206,-1.2064,-1.2132,-1.2149,-1.2193,-1.2107,-1.2108,-1.2109,0,-1.2203,-1.2198,-1.2218,-1.2199,-1.22,-1.2208,-1.2201,-1.2202,-1.219,-1.218,-1.2175,-1.2153,-1.2161,-1.2133,-1.2143,-1.2126,-1.2125,-1.2118,-1.2119,-1.2118,-1.2088,-1.2133,-1.2207,-1.2214,-1.2118,-1.2117,-1.2116,0,-1.226,-1.2258,-1.227,-1.2266,-1.2244,-1.225,-1.2242,-1.2228,-1.2227,-1.2221,-1.222,-1.2215,-1.2213,-1.221,-1.2187,-1.2169,-1.2201,-1.2171,-1.2192,-1.2193,-1.22,-1.22,-1.2275,-1.22,-1.22,-1.2199,-1.2199,0,-1.2315,-1.2329,-1.2295,-1.2303,-1.2318,-1.229,-1.2305,-1.2293,-1.2282,-1.2286,-1.2257,-1.2262,-1.2232,-1.2233,-1.2216,-1.2227,-1.2226,-1.2218,-1.2213,-1.2221,-1.2222,-1.222,-1.2216,-1.2201,-1.2201,-1.22,-1.22,0,-1.2382,-1.2359,-1.2371,-1.2349,-1.2344,-1.2356,-1.2337,-1.2343,-1.2327,-1.2334,-1.2334,-1.2309,-1.2309,-1.2286,-1.2282,-1.227,-1.2289,-1.2279,-1.2294,-1.229,-1.2313,-1.2311,-1.2389,-1.2398,-1.2317,-1.2318,-1.2319,0,-1.2418,-1.2428,-1.2408,-1.2409,-1.2402,-1.2403,-1.2402,-1.2375,-1.2375,-1.2362,-1.237,-1.2368,-1.2365,-1.2367,-1.2349,-1.2345,-1.2335,-1.2362,-1.2334,-1.2341,-1.2335,-1.2335,-1.2336,-1.2368,-1.2369,-1.237,-1.2371,0,-1.2486,-1.2475,-1.2473,-1.2469,-1.2467,-1.2462,-1.2455,-1.2458,-1.2428,-1.2429,-1.243,-1.2427,-1.2423,-1.2422,-1.2415,-1.2406,-1.2384,-1.238,-1.2384,-1.2392,-1.2401,-1.2397,-1.231,-1.2378,-1.2377,-1.2377,-1.2376,-1.2376,-1.2539,-1.2546,-1.2533,-1.2533,-1.2525,-1.2519,-1.2524,-1.2508,-1.2508,-1.2502,-1.2487,-1.249,-1.2477,-1.2466,-1.2459,-1.2461,-1.2447,-1.2454,-1.2456,-1.2458,-1.2462,-1.24,-1.2459,-1.2459,-1.2459,-1.2459,-1.2458,0,-1.2605,-1.2595,-1.2595,-1.2586,-1.2586,-1.2565,-1.2556,-1.2558,-1.2561,-1.2551,-1.2549,-1.2549,-1.2547,-1.2529,-1.2525,-1.2531,-1.252,-1.253,-1.253,-1.2528,-1.2474,-1.2471,-1.2539,-1.2539,-1.2539,-1.2539,-1.2539,-1.2539,-1.264,-1.2652,-1.2639,-1.2646,-1.2635,-1.2638,-1.2635,-1.2629,-1.2622,-1.2623,-1.2622,-1.261,-1.2597,-1.2592,-1.259,-1.2584,-1.2584,-1.2598,-1.259,-1.254,-1.2532,-1.2525,-1.2521,-1.2598,-1.2598,-1.2643,-1.2643,-1.2644]},{"header":{"parameterUnit":"m.s-1","parameterCategory":1,"la1":30.2991,"la2":30.254,"lo1":-89.0895,"lo2":-89.0444,"dy":0.0017,"dx":0.0017,"nx":28,"ny":28,"refTime":"2023-09-22T03:00:00:Z","depth":0,"parameterNumber":3,"parameterNumberName":"V-component_of_WINDS"},"data":[0,0,0,0,0,0,0,0,0,0,0,0,0,0,0,0,0,0,0,0,0,0,0,0,0,0,0,0,0,0,0,0,0,0,0,0,0,0,0,0,0,0,0,0,0,0,0,0,0,0,0,0,0,0,0,0,0,0,3.3928,3.3928,0,3.3927,3.3927,3.3927,3.3868,3.3866,3.3865,3.3863,3.3862,3.3864,3.3865,0,0,0,0,0,0,0,0,0,0,0,0,0,3.3877,3.3879,3.3928,3.3928,3.3928,3.3927,3.3927,3.3927,3.3868,3.3866,3.3864,3.3862,3.3862,3.3863,3.3865,0,0,0,0,0,0,0,0,0,0,0,0,0,3.389,3.3879,3.3928,3.3898,3.3895,3.3927,3.3927,3.3927,3.3868,3.3866,3.3864,3.3861,3.3861,3.3863,3.3865,3.3925,0,0,3.3872,3.3873,0,0,0,0,0,0,0,0,3.389,3.3892,3.3903,3.39,3.3897,3.3895,3.3909,3.3926,3.3869,3.3879,3.3863,3.386,3.3875,3.3876,3.3881,3.3925,3.3925,3.3872,3.3873,3.3874,3.3875,0,0,0,0,0,0,0,3.3889,3.3892,3.3927,3.3903,3.39,3.3885,3.3884,3.3912,3.389,3.3878,3.3873,3.3874,3.3873,3.3879,3.388,3.3925,3.3872,3.3874,3.3875,3.3876,3.4016,3.4019,0,0,0,0,0,0,3.3892,3.3891,3.3927,3.3927,3.3888,3.3887,3.3887,3.3898,3.3889,3.3886,3.3876,3.3871,3.3876,3.3878,3.388,3.3948,3.3874,3.3876,3.3877,3.4014,3.4017,3.4019,0,0,0,0,0,0,3.3891,3.3896,3.3927,3.3908,3.3911,3.3891,3.3904,3.3899,3.3905,3.3888,3.3884,3.3886,3.3875,3.3877,3.3914,3.3947,3.3877,3.3879,3.4011,3.4015,3.4018,3.4084,0,0,0,0,0,0,3.389,3.3896,3.3918,3.3909,3.3912,3.3962,3.3906,3.3901,3.3909,3.3903,3.3896,3.3893,3.3873,3.3911,3.3916,3.3948,3.3881,3.4008,3.4013,3.4017,3.4079,3.409,3.4099,0,0,0,0,0,3.3888,3.3938,3.392,3.3925,3.394,3.3964,3.3965,3.3941,3.3912,3.3934,3.3923,3.3893,3.3943,3.3915,3.392,3.3954,3.4006,3.4011,3.4017,3.4075,3.4088,3.4099,0,0,0,0,0,0,3.3951,3.3936,3.3916,3.3964,3.3966,3.3954,3.3981,3.3956,3.3966,3.396,3.393,3.3929,3.397,3.3966,3.3936,3.4011,3.3969,3.3976,3.4011,3.4024,3.4033,3.4033,3.3883,0,0,0,0,0,3.3971,3.3991,3.3977,3.402,3.4022,3.4002,3.4011,3.3992,3.3993,3.3993,3.3985,3.3986,3.4002,3.4013,3.4027,3.4079,3.4076,3.4105,3.4115,3.4123,3.4128,3.4154,3.4166,3.4038,3.4037,3.4037,0,0,3.4011,3.4005,3.402,3.4033,3.4032,3.4053,3.4002,3.4027,3.4042,3.3997,3.403,3.4025,3.4024,3.4069,3.4088,3.4066,3.4164,3.413,3.4137,3.4138,3.4161,3.4173,3.4184,3.4041,3.4041,3.404,0,0,3.4095,3.4094,3.4128,3.4128,3.4127,3.4113,3.4122,3.4114,3.4108,3.4142,3.4107,3.4125,3.4153,3.4154,3.4158,3.4242,3.4214,3.4247,3.4298,3.4324,3.4334,3.4343,3.4371,3.4381,3.4253,3.4253,3.4254,0,3.4145,3.4176,3.415,3.4176,3.4182,3.4142,3.4177,3.4178,3.4182,3.4187,3.4163,3.4197,3.4194,3.4237,3.4257,3.4263,3.427,3.4247,3.4335,3.4343,3.4351,3.4377,3.4388,3.4257,3.4257,3.4256,3.4256,0,3.4236,3.4258,3.4287,3.429,3.43,3.4331,3.4309,3.4322,3.4302,3.4291,3.4325,3.432,3.4331,3.434,3.4322,3.4381,3.4367,3.434,3.4297,3.4368,3.4392,3.4402,3.4263,3.4261,3.426,3.4259,0,0,3.4359,3.4348,3.4358,3.4359,3.4355,3.4371,3.44,3.4411,3.4421,3.4426,3.4448,3.4473,3.4447,3.4452,3.4433,3.4456,3.452,3.4425,3.4424,3.4441,3.4582,3.4602,3.4614,3.4503,3.4504,3.4506,3.4582,0,3.4438,3.4486,3.4463,3.4513,3.4532,3.4494,3.4519,3.4519,3.4509,3.4524,3.4513,3.453,3.4496,3.4498,3.4519,3.4508,3.4548,3.4502,3.4522,3.4523,3.4521,3.4627,3.4647,3.4719,3.4591,3.4593,3.4594,0,3.4537,3.4544,3.4596,3.4587,3.4594,3.4617,3.4624,3.4639,3.4638,3.4629,3.4635,3.4611,3.4638,3.4597,3.4633,3.4603,3.461,3.4606,3.4608,3.4607,3.4561,3.4627,3.4741,3.4751,3.4609,3.4608,3.4607,0,3.4618,3.4642,3.4675,3.4677,3.4668,3.4685,3.4682,3.4679,3.4686,3.4693,3.4697,3.4708,3.4713,3.4721,3.4701,3.4673,3.4739,3.4697,3.4731,3.4732,3.4745,3.4744,3.486,3.4754,3.4753,3.4753,3.4753,0,3.4708,3.4741,3.4711,3.4732,3.4767,3.4741,3.4777,3.477,3.4767,3.4785,3.4754,3.4772,3.4744,3.4759,3.4743,3.4774,3.4778,3.4771,3.4766,3.4772,3.4773,3.4775,3.4768,3.4756,3.4755,3.4755,3.4754,0,3.4804,3.4786,3.482,3.4808,3.4806,3.4833,3.4823,3.4841,3.4829,3.4852,3.4856,3.4838,3.4854,3.4834,3.4849,3.4838,3.488,3.4869,3.488,3.4876,3.4911,3.4907,3.5031,3.5045,3.4931,3.4932,3.4933,0,3.4862,3.4886,3.4877,3.4886,3.4885,3.4901,3.4909,3.4884,3.4893,3.4893,3.4911,3.4924,3.4933,3.496,3.4948,3.4959,3.4946,3.4989,3.4947,3.4953,3.4944,3.4942,3.4944,3.4997,3.4998,3.4999,3.5,0,3.4965,3.4954,3.4966,3.4974,3.4983,3.4989,3.4992,3.5002,3.4976,3.4988,3.5003,3.501,3.5024,3.5037,3.5045,3.5041,3.5016,3.5013,3.5021,3.5027,3.5032,3.5028,3.4901,3.501,3.5009,3.5008,3.5008,3.5007,3.5042,3.5061,3.5057,3.507,3.507,3.5074,3.509,3.508,3.5092,3.5101,3.5086,3.5105,3.5103,3.511,3.511,3.5124,3.5106,3.5118,3.5121,3.5124,3.5128,3.5032,3.5126,3.5125,3.5125,3.5125,3.5125,0,3.5141,3.5137,3.515,3.5154,3.5165,3.5141,3.5143,3.5153,3.517,3.517,3.518,3.5197,3.5209,3.5198,3.5208,3.5222,3.521,3.5225,3.5223,3.5222,3.5145,3.5136,3.5234,3.5234,3.5234,3.5234,3.5234,3.5234,3.5194,3.5224,3.5213,3.5243,3.5238,3.5256,3.5259,3.5262,3.5262,3.5282,3.5292,3.5285,3.528,3.5289,3.53,3.5296,3.53,3.5319,3.5311,3.5239,3.5228,3.5217,3.5209,3.532,3.5321,3.5386,3.5387,3.5388]}]]